Location: St. Andrews
(45.0670°N, 67.0330°W)
Time: 22:54:08
(UTC-04:00)

Amateur Radio Satellites - All Passes

Search period start: 05 December 2016 22:24
Search period end: 06 December 2016 22:24
Location: St. Andrews, 45.0670°N, 67.0330°W

Satellite Date Start Highest point End Downlink Frequencies (MHz)
Time Altitude Azimuth
Cosmos 2504 05 Dec 22:30:27 22:36:53 23° 300° (WNW) 22:43:35 435.465 / 435.565
UNISAT 6 05 Dec 22:32:51 22:37:13 56° 100° (E) 22:41:28 437.425
DX 1 05 Dec 22:37:50 22:39:48 13° 59° (ENE) 22:41:48 434.975-435.025
UKube-1 05 Dec 22:46:14 22:47:48 12° 58° (ENE) 22:49:23 .
JAS-2 05 Dec 22:51:10 22:54:44 18° 92° (E) 22:58:22 435.910
SPROUT 05 Dec 22:57:39 23:01:01 23° 65° (ENE) 23:04:23 437.525
TIGRISAT 05 Dec 23:02:59 23:07:25 76° 285° (WNW) 23:11:43 435.000
ANTELSAT 05 Dec 23:04:21 23:08:46 69° 285° (WNW) 23:13:03 437.575/2403.000
ESTCUBE 1 05 Dec 23:11:22 23:15:51 77° 258° (WSW) 23:20:21 437.505/2401.250
NANOSAT C BR1 05 Dec 23:16:26 23:19:17 17° 92° (E) 23:22:07 145.865
AISAT 05 Dec 23:19:37 23:23:58 60° 73° (ENE) 23:28:22 437.250
QB50P2 05 Dec 23:21:29 23:24:52 23° 94° (E) 23:28:13 145.880/145.840
POLYITAN 1 05 Dec 23:22:06 23:25:24 22° 93° (E) 23:28:39 437.675
ISS 05 Dec 23:29:34 23:32:35 33° 219° (SW) 23:35:36 145.825
50 SAT 05 Dec 23:32:42 23:36:09 62° 74° (ENE) 23:39:39 437.505
QB50P1 05 Dec 23:34:57 23:38:41 29° 96° (E) 23:42:22 145.935-145.965
Cosmos 2499 05 Dec 23:37:15 23:43:39 24° 78° (ENE) 23:50:11 435.465 / 435.565
DUCHIFAT 1 05 Dec 23:38:16 23:41:53 27° 95° (E) 23:45:27 145.980
GONETS M04 05 Dec 23:46:10 23:52:41 24° 79° (E) 23:59:11
CUBEBUG 1 05 Dec 23:46:53 23:51:07 52° 260° (W) 23:55:26 437.445
POPSAT HIP 1 05 Dec 23:56:10 00:00:18 48° 99° (E) 00:04:23 437.405
VELOX 1 05 Dec 23:56:36 00:00:57 60° 259° (W) 00:05:22 145.980
UNISAT 6 06 Dec 00:10:42 00:13:28 17° 298° (WNW) 00:16:12 437.425
DX 1 06 Dec 00:11:03 00:15:23 76° 257° (WSW) 00:19:47 434.975-435.025
UKube-1 06 Dec 00:18:52 00:23:12 83° 258° (WSW) 00:27:33 .
TISAT 1 06 Dec 00:20:25 00:24:05 29° 67° (ENE) 00:27:46 437.305
SPROUT 06 Dec 00:32:44 00:36:44 37° 263° (W) 00:40:47 437.525
JAS-2 06 Dec 00:35:11 00:40:16 58° 289° (WNW) 00:45:31 435.910
BUGSAT 1 06 Dec 00:36:23 00:40:26 44° 99° (E) 00:44:24 437.445
ITUPSAT 1 06 Dec 00:37:43 00:39:23 12° 57° (ENE) 00:41:04 437.325
NANOSAT C BR1 06 Dec 00:51:11 00:55:15 45° 289° (WNW) 00:59:15 145.865
QB50P2 06 Dec 00:56:52 01:00:45 35° 291° (WNW) 01:04:35 145.880/145.840
POLYITAN 1 06 Dec 00:57:23 01:01:18 36° 291° (WNW) 01:05:10 437.675
AISAT 06 Dec 00:58:22 01:00:50 15° 270° (W) 01:03:18 437.250
QB50P1 06 Dec 01:10:47 01:14:23 27° 293° (WNW) 01:17:57 145.935-145.965
DUCHIFAT 1 06 Dec 01:13:52 01:17:32 29° 292° (WNW) 01:21:09 145.980
Gurwin Techsat 1B 06 Dec 01:17:52 01:21:11 16° 90° (E) 01:24:28 435.225
Oscar 19 06 Dec 01:23:11 01:27:54 34° 97° (E) 01:32:36 437.125/150
O/OREOS (USA 219) 06 Dec 01:24:01 01:28:08 34° 58° (ENE) 01:32:12 437.305
AUBIESAT-1 06 Dec 01:26:36 01:30:34 43° 65° (ENE) 01:34:48 437.475
Cosmos 2499 06 Dec 01:27:06 01:35:42 82° 279° (W) 01:44:41 435.465 / 435.565
POPSAT HIP 1 06 Dec 01:32:52 01:35:43 18° 297° (WNW) 01:38:34 437.405
M-CUBED/EXP-1 PRIME 06 Dec 01:38:26 01:42:32 70° 68° (ENE) 01:46:59 437.505
GONETS M04 06 Dec 01:39:49 01:48:33 77° 280° (W) 01:57:17
SWISSCUBE 06 Dec 01:40:21 01:44:55 47° 70° (ENE) 01:49:30 437.505
PHONESAT 2.4 06 Dec 01:42:42 01:44:47 20° 166° (SSE) 01:46:51 2401.200-2431.200
BEESAT 06 Dec 01:44:26 01:48:59 47° 70° (ENE) 01:53:34 436.000
TISAT 1 06 Dec 01:56:02 01:59:40 27° 264° (W) 02:03:21 437.305
ITUPSAT 1 06 Dec 02:11:39 02:16:27 83° 75° (ENE) 02:21:15 437.325
BUGSAT 1 06 Dec 02:12:32 02:15:29 19° 296° (WNW) 02:18:23 437.445
AO-85 06 Dec 02:12:46 02:17:26 44° 119° (ESE) 02:21:47 145.980
AO-7 06 Dec 02:51:58 02:58:14 23° 91° (E) 03:04:26 29.400- 29.500
MOZHAYETS 4 06 Dec 02:52:36 02:57:04 53° 72° (ENE) 03:01:31
Gurwin Techsat 1B 06 Dec 02:56:20 03:01:39 71° 288° (WNW) 03:06:56 435.225
CUBESAT XI-V 06 Dec 02:58:48 02:59:41 10° 57° (ENE) 03:00:34 437.345
AUBIESAT-1 06 Dec 03:02:06 03:05:12 20° 263° (W) 03:08:28 437.475
Oscar 19 06 Dec 03:02:33 03:07:11 34° 294° (WNW) 03:11:48 437.125/150
O/OREOS (USA 219) 06 Dec 03:03:38 03:07:24 27° 256° (WSW) 03:11:08 437.305
M-CUBED/EXP-1 PRIME 06 Dec 03:15:47 03:17:34 12° 267° (W) 03:19:24 437.505
PHONESAT 2.4 06 Dec 03:17:16 03:19:39 29° 182° (S) 03:22:01 2401.200-2431.200
SWISSCUBE 06 Dec 03:19:23 03:22:57 21° 267° (W) 03:26:31 437.505
SO-50 06 Dec 03:19:29 03:22:20 16° 32° (NNE) 03:25:09 436.795
BEESAT 06 Dec 03:23:24 03:27:00 21° 267° (W) 03:30:37 436.000
Cosmos 2499 06 Dec 03:24:14 03:30:22 21° 302° (WNW) 03:36:38 435.465 / 435.565
KKS-1 06 Dec 03:24:22 03:28:40 50° 71° (ENE) 03:33:02 437.445
ITAMSAT 1 06 Dec 03:29:59 03:35:07 58° 101° (E) 03:40:12 435.822/435.867
STARS 06 Dec 03:31:26 03:35:15 29° 67° (ENE) 03:39:06 437.465
GONETS M04 06 Dec 03:41:26 03:47:01 18° 303° (WNW) 03:52:36
ITUPSAT 1 06 Dec 03:53:13 03:54:53 12° 272° (W) 03:56:34 437.325
AO-85 06 Dec 03:53:48 03:57:59 29° 316° (NW) 04:01:56 145.980
MOZHAYETS 4 06 Dec 04:31:30 04:34:33 17° 269° (W) 04:37:35
CUBESAT XI-V 06 Dec 04:31:41 04:36:16 81° 75° (ENE) 04:40:53 437.345
Gurwin Techsat 1B 06 Dec 04:38:56 04:40:39 12° 306° (NW) 04:42:22 435.225
AO-7 06 Dec 04:43:30 04:51:55 84° 290° (WNW) 05:00:18 29.400- 29.500
PHONESAT 2.4 06 Dec 04:52:39 04:54:27 17° 198° (SSW) 04:56:16 2401.200-2431.200
SO-50 06 Dec 04:59:00 05:03:35 78° 55° (NE) 05:08:03 436.795
KKS-1 06 Dec 05:02:31 05:05:32 18° 268° (W) 05:08:33 437.445
BEESAT 3 06 Dec 05:06:09 05:09:41 34° 117° (ESE) 05:13:17 437.485
STARS 06 Dec 05:07:39 05:11:32 30° 264° (W) 05:15:28 437.465
GOMX 1 06 Dec 05:07:43 05:11:22 18° 89° (E) 05:15:01 467.674
ITAMSAT 1 06 Dec 05:10:21 05:14:09 21° 299° (WNW) 05:17:58 435.822/435.867
YUBILEINY 06 Dec 05:14:05 05:21:39 30° 65° (ENE) 05:29:11 435.215
NOAA 15 06 Dec 05:27:45 05:30:27 14° 89° (E) 05:33:10 137.62
BRITE-PL 06 Dec 05:29:59 05:35:19 58° 100° (E) 05:40:53 437.365/2234.400
Cubesat XI-IV 06 Dec 05:30:37 05:33:10 13° 88° (E) 05:35:41 437.490
BEESAT 2 06 Dec 05:35:06 05:38:36 32° 117° (ESE) 05:42:11 435.950
Cosmos 2491 06 Dec 05:47:03 05:52:59 21° 77° (ENE) 05:58:55 435.465 / 435.565
HORYU 2 06 Dec 06:04:01 06:08:29 87° 104° (ESE) 06:12:55 437.375
AIST 1 06 Dec 06:11:58 06:15:13 20° 70° (ENE) 06:18:29
CUBESAT XI-V 06 Dec 06:12:51 06:14:14 11° 273° (W) 06:15:37 437.345
Cosmos 2504 06 Dec 06:24:32 06:32:44 40° 69° (ENE) 06:40:31 435.465 / 435.565
STRAND 1 06 Dec 06:29:21 06:34:20 53° 70° (ENE) 06:39:20 437.568
AO-7 06 Dec 06:37:28 06:43:34 23° 312° (NW) 06:49:40 29.400- 29.500
CINEMA 3 06 Dec 06:39:00 06:41:07 13° 87° (E) 06:43:13 145.822/145.860
SO-50 06 Dec 06:41:16 06:43:24 13° 251° (WSW) 06:45:30 436.795
CUTE-I 06 Dec 06:42:36 06:47:53 59° 101° (E) 06:53:08 437.470
BEESAT 3 06 Dec 06:43:58 06:47:22 27° 316° (NW) 06:50:47 437.485
GOMX 1 06 Dec 06:44:28 06:49:54 70° 286° (WNW) 06:55:22 467.674
NOAA 18 06 Dec 06:51:24 06:56:44 45° 99° (E) 07:01:59 137.9125
RS-15 06 Dec 06:51:48 07:02:10 39° 106° (ESE) 07:12:56 29.354- 29.394
DOVE 4 06 Dec 06:55:14 07:00:34 71° 101° (ESE) 07:05:44 437.250
LilacSat-2 06 Dec 06:56:33 07:00:21 76° 284° (WNW) 07:04:06 437.200
CANX-2 06 Dec 07:04:47 07:07:06 14° 90° (E) 07:09:24 2200.000
NOAA 15 06 Dec 07:05:34 07:10:52 81° 286° (WNW) 07:16:09 137.62
HO-68 06 Dec 07:07:45 07:13:13 23° 91° (E) 07:18:38 435.675
Cubesat XI-IV 06 Dec 07:08:32 07:13:55 85° 286° (WNW) 07:19:15 437.490
BRITE-PL 06 Dec 07:09:16 07:13:25 23° 296° (WNW) 07:17:42 437.365/2234.400
YUBILEINY 06 Dec 07:10:26 07:19:09 67° 267° (W) 07:27:52 435.215
BEESAT 2 06 Dec 07:12:55 07:16:25 29° 315° (NW) 07:19:57 435.950
PRISM 06 Dec 07:26:39 07:28:37 13° 60° (ENE) 07:30:34 437.425
SEEDS 06 Dec 07:30:02 07:32:36 16° 91° (E) 07:35:10 437.485
Cosmos 2491 06 Dec 07:39:49 07:48:38 88° 279° (W) 07:57:27 435.465 / 435.565
COMPASS 1 06 Dec 07:40:48 07:42:57 14° 90° (E) 07:45:06 437.405
HORYU 2 06 Dec 07:42:48 07:44:21 12° 302° (WNW) 07:45:53 437.375
AIST 1 06 Dec 07:48:52 07:53:01 41° 268° (W) 07:57:08
AIST 2 06 Dec 08:02:12 08:05:47 30° 116° (ESE) 08:09:27 435.215
STRAND 1 06 Dec 08:10:00 08:13:50 21° 268° (W) 08:17:39 437.568
CINEMA 3 06 Dec 08:14:01 08:18:53 76° 285° (WNW) 08:23:30 145.822/145.860
Cosmos 2504 06 Dec 08:17:55 08:26:21 52° 271° (W) 08:34:20 435.465 / 435.565
ZACube-1 06 Dec 08:20:45 08:22:40 13° 89° (E) 08:24:36 437.345
CUTE 1.7 + AOD 2 06 Dec 08:21:02 08:25:16 82° 103° (ESE) 08:29:30 437.475
CUTE-I 06 Dec 08:23:33 08:27:30 22° 299° (WNW) 08:31:26 437.470
GOMX 1 06 Dec 08:25:00 08:27:02 12° 304° (NW) 08:29:04 467.674
FUNcube-1 06 Dec 08:28:07 08:30:25 14° 90° (E) 08:32:40 145.935
TIGRISAT 06 Dec 08:28:41 08:31:21 15° 61° (ENE) 08:34:01 435.000
ANTELSAT 06 Dec 08:29:54 08:32:48 16° 62° (ENE) 08:35:41 437.575/2403.000
CUBEBUG 2 06 Dec 08:31:55 08:36:09 43° 98° (E) 08:40:14 437.445
NOAA 18 06 Dec 08:32:28 08:37:10 29° 297° (WNW) 08:41:51 137.9125
DOVE 4 06 Dec 08:34:05 08:37:39 19° 300° (WNW) 08:41:10 437.250
CANX-2 06 Dec 08:39:10 08:43:18 55° 287° (WNW) 08:47:25 2200.000
AAUSAT CUBESAT 2 06 Dec 08:44:26 08:48:30 52° 100° (E) 08:52:33 437.432
NOAA 15 06 Dec 08:47:27 08:49:49 13° 305° (NW) 08:52:10 137.62
Cubesat XI-IV 06 Dec 08:50:33 08:53:10 14° 304° (NW) 08:55:49 437.490
HO-68 06 Dec 08:54:24 09:01:36 75° 290° (WNW) 09:08:46 435.675
Oscar 11 06 Dec 08:57:34 09:01:19 29° 95° (E) 09:05:03 145.826/435.025
CUSAT 1 06 Dec 08:57:55 08:59:15 12° 94° (E) 09:00:30 437.405
PRISM 06 Dec 08:59:22 09:03:23 64° 258° (WSW) 09:07:28 437.425
RS-15 06 Dec 09:01:59 09:13:50 72° 310° (NW) 09:26:15 29.354- 29.394
AO-85 06 Dec 09:03:50 09:05:13 11° 29° (NNE) 09:06:36 145.980
SEEDS 06 Dec 09:04:32 09:08:34 49° 288° (WNW) 09:12:37 437.485
JAS-2 06 Dec 09:07:57 09:10:32 13° 56° (NE) 09:13:02 435.910
YUBILEINY 06 Dec 09:10:27 09:14:09 13° 288° (WNW) 09:17:50 435.215
UWE-3 06 Dec 09:14:12 09:18:33 80° 103° (ESE) 09:22:46 435.000/436.395/437.385
COMPASS 1 06 Dec 09:14:47 09:18:52 56° 286° (WNW) 09:22:55 437.405
UNISAT 6 06 Dec 09:32:52 09:37:30 63° 73° (ENE) 09:42:07 437.425
AIST 2 06 Dec 09:40:29 09:44:12 32° 314° (NW) 09:48:01 435.215
Cosmos 2491 06 Dec 09:40:32 09:46:50 21° 301° (WNW) 09:53:09 435.465 / 435.565
DELFI C3 06 Dec 09:42:34 09:46:08 31° 96° (E) 09:49:41 145.870
DANDE 06 Dec 09:43:08 09:45:57 17° 95° (E) 09:48:22 436.750
HUMSAT D 06 Dec 09:47:02 09:49:57 19° 92° (E) 09:52:51 437.325/437.525
GONETS M04 06 Dec 09:53:10 09:57:10 14° 52° (NE) 10:01:07
CINEMA 3 06 Dec 09:54:00 09:55:05 11° 304° (NW) 09:56:09 145.822/145.860
ZACube-1 06 Dec 09:55:12 09:59:25 60° 286° (WNW) 10:03:31 437.345
CUTE 1.7 + AOD 2 06 Dec 09:59:12 10:00:29 11° 300° (WNW) 10:01:45 437.475
TIGRISAT 06 Dec 10:02:49 10:07:30 71° 258° (WSW) 10:12:09 435.000
FUNcube-1 06 Dec 10:02:53 10:07:02 54° 287° (WNW) 10:11:05 145.935
ANTELSAT 06 Dec 10:04:21 10:09:00 65° 259° (WSW) 10:13:39 437.575/2403.000
CUBEBUG 2 06 Dec 10:09:13 10:12:28 20° 296° (WNW) 10:15:37 437.445
NANOSAT C BR1 06 Dec 10:10:32 10:13:27 18° 63° (ENE) 10:16:22 145.865
QB50P2 06 Dec 10:15:58 10:19:21 23° 65° (ENE) 10:22:45 145.880/145.840
POLYITAN 1 06 Dec 10:16:34 10:19:54 22° 65° (ENE) 10:23:14 437.675
AAUSAT CUBESAT 2 06 Dec 10:21:02 10:23:34 16° 297° (WNW) 10:26:06 437.432
QB50P1 06 Dec 10:29:07 10:32:49 29° 67° (ENE) 10:36:31 145.935-145.965
DUCHIFAT 1 06 Dec 10:31:52 10:35:27 27° 67° (ENE) 10:39:02 145.980
Oscar 11 06 Dec 10:33:42 10:37:24 28° 292° (WNW) 10:41:05 145.826/435.025
CUSAT 1 06 Dec 10:38:40 10:40:59 20° 285° (WNW) 10:43:06 437.405
AO-85 06 Dec 10:42:33 10:46:33 60° 51° (NE) 10:50:23 145.980
HO-68 06 Dec 10:43:46 10:48:11 18° 310° (NW) 10:52:35 435.675
JAS-2 06 Dec 10:48:26 10:54:52 74° 73° (ENE) 11:00:34 435.910
POPSAT HIP 1 06 Dec 10:50:09 10:54:15 46° 71° (ENE) 10:58:23 437.405
UWE-3 06 Dec 10:52:46 10:54:20 12° 301° (WNW) 10:55:54 435.000/436.395/437.385
PCSat 06 Dec 11:02:27 11:06:51 26° 109° (ESE) 11:11:17 145.827
ESTCUBE 1 06 Dec 11:02:33 11:05:49 19° 92° (E) 11:09:05 437.505/2401.250
UNISAT 6 06 Dec 11:11:54 11:14:37 15° 270° (W) 11:17:19 437.425
Cosmos 2499 06 Dec 11:16:43 11:24:57 44° 71° (ENE) 11:32:36 435.465 / 435.565
DELFI C3 06 Dec 11:17:39 11:20:48 23° 293° (WNW) 11:23:57 145.870
RS-15 06 Dec 11:18:15 11:28:59 34° 341° (NNW) 11:39:57 29.354- 29.394
HUMSAT D 06 Dec 11:21:55 11:25:43 38° 290° (WNW) 11:29:30 437.325/437.525
DANDE 06 Dec 11:24:32 11:28:33 33° 283° (WNW) 11:31:44 436.750
BUGSAT 1 06 Dec 11:27:35 11:31:33 40° 70° (ENE) 11:35:34 437.445
CUBEBUG 1 06 Dec 11:33:40 11:37:20 25° 94° (E) 11:40:59 437.445
NANOSAT C BR1 06 Dec 11:44:42 11:48:50 48° 261° (W) 11:52:59 145.865
VELOX 1 06 Dec 11:45:07 11:48:36 22° 94° (E) 11:52:04 145.980
GONETS M04 06 Dec 11:47:34 11:56:11 60° 76° (ENE) 12:04:47
QB50P2 06 Dec 11:51:00 11:54:57 36° 263° (W) 11:58:57 145.880/145.840
POLYITAN 1 06 Dec 11:51:28 11:55:28 38° 262° (W) 11:59:30 437.675
DX 1 06 Dec 11:58:18 12:01:03 16° 91° (E) 12:03:48 434.975-435.025
QB50P1 06 Dec 12:04:50 12:08:32 28° 265° (W) 12:12:15 145.935-145.965
UKube-1 06 Dec 12:05:21 12:07:40 14° 90° (E) 12:09:58 .
DUCHIFAT 1 06 Dec 12:07:16 12:11:02 30° 264° (W) 12:14:50 145.980
AO-7 06 Dec 12:08:04 12:09:55 11° 34° (NE) 12:11:46 29.400- 29.500
SPROUT 06 Dec 12:16:23 12:20:13 30° 96° (E) 12:24:00 437.525
AO-85 06 Dec 12:24:31 12:26:23 13° 250° (WSW) 12:28:16 145.980
POPSAT HIP 1 06 Dec 12:27:22 12:30:16 18° 268° (W) 12:33:11 437.405
50 SAT 06 Dec 12:29:56 12:33:26 54° 101° (E) 12:36:55 437.505
JAS-2 06 Dec 12:36:11 12:40:22 18° 268° (W) 12:44:18 435.910
ESTCUBE 1 06 Dec 12:38:33 12:42:51 46° 289° (WNW) 12:47:10 437.505/2401.250
Gurwin Techsat 1B 06 Dec 12:40:23 12:45:04 33° 65° (ENE) 12:49:45 435.225
Oscar 19 06 Dec 12:41:50 12:46:51 60° 71° (ENE) 12:51:56 437.125/150
AISAT 06 Dec 12:43:51 12:48:22 89° 281° (W) 12:52:50 437.250
PCSat 06 Dec 12:44:40 12:49:56 52° 308° (NW) 12:55:15 145.827
BUGSAT 1 06 Dec 13:03:58 13:07:05 20° 267° (W) 13:10:13 437.445
CUBEBUG 1 06 Dec 13:09:38 13:13:41 35° 291° (WNW) 13:17:42 437.445
Cosmos 2499 06 Dec 13:10:03 13:18:04 45° 273° (W) 13:25:34 435.465 / 435.565
ITAMSAT 1 06 Dec 13:13:00 13:16:15 17° 58° (ENE) 13:19:29 435.822/435.867
BEESAT 3 06 Dec 13:20:56 13:24:44 40° 48° (NE) 13:28:30 437.485
VELOX 1 06 Dec 13:21:01 13:25:12 40° 291° (WNW) 13:29:21 145.980
DX 1 06 Dec 13:33:16 13:37:33 53° 289° (WNW) 13:41:49 434.975-435.025
RS-15 06 Dec 13:35:31 13:46:16 32° 15° (NNE) 13:56:57 29.354- 29.394
TISAT 1 06 Dec 13:37:12 13:41:10 37° 98° (E) 13:45:04 437.305
UKube-1 06 Dec 13:39:48 13:44:05 60° 288° (WNW) 13:48:21 .
GONETS M04 06 Dec 13:45:06 13:52:29 32° 277° (W) 13:59:53
BEESAT 2 06 Dec 13:50:40 13:54:29 39° 48° (NE) 13:58:16 435.950
SPROUT 06 Dec 13:52:26 13:56:03 27° 293° (WNW) 13:59:38 437.525
AO-7 06 Dec 13:52:52 14:00:22 40° 58° (ENE) 14:07:55 29.400- 29.500
50 SAT 06 Dec 14:04:56 14:06:17 12° 297° (WNW) 14:07:37 437.505
ITUPSAT 1 06 Dec 14:11:06 14:14:21 18° 92° (E) 14:17:36 437.325
Gurwin Techsat 1B 06 Dec 14:20:02 14:24:55 37° 263° (W) 14:29:51 435.225
AISAT 06 Dec 14:22:43 14:24:07 11° 302° (WNW) 14:25:29 437.250
Oscar 19 06 Dec 14:23:05 14:26:35 18° 269° (W) 14:30:07 437.125/150
PCSat 06 Dec 14:32:00 14:34:38 13° 330° (NNW) 14:37:17 145.827
AUBIESAT-1 06 Dec 14:37:39 14:41:27 25° 99° (E) 14:45:06 437.475
MOZHAYETS 4 06 Dec 14:48:26 14:49:11 10° 87° (E) 14:49:56
M-CUBED/EXP-1 PRIME 06 Dec 14:49:47 14:54:13 40° 103° (ESE) 14:58:28 437.505
ITAMSAT 1 06 Dec 14:49:53 14:55:06 77° 256° (WSW) 15:00:21 435.822/435.867
BEESAT 3 06 Dec 14:59:03 15:02:08 22° 246° (WSW) 15:05:13 437.485
TISAT 1 06 Dec 15:13:19 15:16:35 22° 295° (WNW) 15:19:49 437.305
SWISSCUBE 06 Dec 15:15:49 15:20:36 86° 104° (ESE) 15:25:21 437.505
BEESAT 06 Dec 15:19:49 15:24:37 84° 104° (ESE) 15:29:22 436.000
BEESAT 2 06 Dec 15:28:51 15:32:05 23° 246° (WSW) 15:35:18 435.950
HORYU 2 06 Dec 15:30:04 15:32:06 13° 59° (ENE) 15:34:07 437.375
O/OREOS (USA 219) 06 Dec 15:38:39 15:42:27 26° 103° (ESE) 15:46:13 437.305
AO-7 06 Dec 15:44:50 15:52:53 55° 258° (WSW) 16:01:04 29.400- 29.500
ITUPSAT 1 06 Dec 15:47:53 15:52:31 54° 289° (WNW) 15:57:09 437.325
RS-15 06 Dec 15:49:29 16:01:50 64° 46° (NE) 16:13:50 29.354- 29.394
Cosmos 2491 06 Dec 15:54:25 15:56:58 11° 49° (NE) 15:59:30 435.465 / 435.565
ISS 06 Dec 16:10:55 16:13:39 25° 138° (SE) 16:16:26 145.825
AUBIESAT-1 06 Dec 16:11:38 16:15:56 39° 297° (WNW) 16:20:05 437.475
GOMX 1 06 Dec 16:18:03 16:21:28 20° 62° (ENE) 16:25:04 467.674
AIST 2 06 Dec 16:21:07 16:25:07 40° 48° (NE) 16:29:07 435.215
MOZHAYETS 4 06 Dec 16:22:23 16:26:58 85° 284° (WNW) 16:31:31
M-CUBED/EXP-1 PRIME 06 Dec 16:24:32 16:28:27 27° 300° (WNW) 16:32:16 437.505
CUBESAT XI-V 06 Dec 16:27:05 16:30:13 18° 91° (E) 16:33:21 437.345
DOVE 4 06 Dec 16:28:04 16:30:06 12° 56° (NE) 16:32:10 437.250
CUTE-I 06 Dec 16:28:44 16:32:20 19° 59° (ENE) 16:35:55 437.470
NOAA 18 06 Dec 16:41:45 16:45:15 17° 57° (ENE) 16:48:45 137.9125
BRITE-PL 06 Dec 16:43:17 16:47:34 74° 75° (ENE) 16:52:14 437.365/2234.400
NOAA 15 06 Dec 16:49:03 16:53:29 29° 64° (ENE) 16:57:56 137.62
KKS-1 06 Dec 16:49:28 16:53:59 77° 103° (ESE) 16:58:27 437.445
Cubesat XI-IV 06 Dec 16:53:38 16:58:11 29° 64° (ENE) 17:02:44 437.490
STARS 06 Dec 16:54:22 16:58:34 41° 98° (E) 17:02:43 437.465
SWISSCUBE 06 Dec 16:55:31 16:57:42 13° 302° (WNW) 16:59:54 437.505
BEESAT 06 Dec 16:59:27 17:01:43 13° 302° (WNW) 17:03:58 436.000
HORYU 2 06 Dec 17:03:32 17:08:01 80° 256° (WSW) 17:12:32 437.375
O/OREOS (USA 219) 06 Dec 17:17:30 17:21:42 35° 302° (WNW) 17:25:54 437.305
HO-68 06 Dec 17:39:21 17:44:40 23° 54° (NE) 17:50:01 435.675
LilacSat-2 06 Dec 17:39:53 17:43:42 68° 76° (ENE) 17:47:32 437.200
CINEMA 3 06 Dec 17:41:46 17:44:58 17° 61° (ENE) 17:48:10 145.822/145.860
ISS 06 Dec 17:46:44 17:49:59 55° 336° (NNW) 17:53:15 145.825
Cosmos 2491 06 Dec 17:47:52 17:56:21 52° 74° (ENE) 18:04:46 435.465 / 435.565
GOMX 1 06 Dec 17:54:38 17:59:06 52° 261° (W) 18:03:58 467.674
CANX-2 06 Dec 17:59:57 18:02:12 14° 62° (ENE) 18:04:27 2200.000
AIST 2 06 Dec 17:59:57 18:03:25 25° 246° (WSW) 18:06:52 435.215
DOVE 4 06 Dec 18:02:03 18:06:53 82° 75° (ENE) 18:12:01 437.250
MOZHAYETS 4 06 Dec 18:02:09 18:03:22 11° 302° (WNW) 18:04:36
RS-15 06 Dec 18:02:36 18:13:59 46° 251° (WSW) 18:25:03 29.354- 29.394
CUBESAT XI-V 06 Dec 18:03:22 18:07:55 54° 288° (WNW) 18:12:27 437.345
PCSat 06 Dec 18:06:17 18:07:11 10° 24° (NNE) 18:08:04 145.827
CUTE-I 06 Dec 18:06:26 18:11:48 72° 257° (WSW) 18:17:11 437.470
YUBILEINY 06 Dec 18:18:30 18:25:46 31° 82° (E) 18:33:04 435.215
NOAA 18 06 Dec 18:19:40 18:25:13 82° 255° (WSW) 18:30:49 137.9125
SEEDS 06 Dec 18:24:07 18:26:30 15° 63° (ENE) 18:28:54 437.485
BRITE-PL 06 Dec 18:25:20 18:26:47 11° 274° (W) 18:28:15 437.365/2234.400
KKS-1 06 Dec 18:27:47 18:29:55 13° 301° (WNW) 18:32:03 437.445
NOAA 15 06 Dec 18:28:09 18:33:05 41° 262° (W) 18:38:03 137.62
STARS 06 Dec 18:31:15 18:34:40 22° 296° (WNW) 18:38:03 437.465
Cubesat XI-IV 06 Dec 18:32:57 18:38:03 43° 262° (W) 18:43:11 437.490
COMPASS 1 06 Dec 18:34:05 18:35:59 13° 61° (ENE) 18:37:53 437.405
STRAND 1 06 Dec 18:39:10 18:42:05 15° 89° (E) 18:44:59 437.568
UWE-3 06 Dec 18:40:08 18:41:11 11° 58° (ENE) 18:42:14 435.000/436.395/437.385
Cosmos 2504 06 Dec 19:05:30 19:12:30 30° 81° (E) 19:19:47 435.465 / 435.565
CUTE 1.7 + AOD 2 06 Dec 19:15:12 19:19:24 73° 75° (ENE) 19:23:36 437.475
CINEMA 3 06 Dec 19:16:34 19:21:30 70° 258° (WSW) 19:26:33 145.822/145.860
SO-50 06 Dec 19:16:37 19:19:29 16° 110° (ESE) 19:22:19 436.795
ZACube-1 06 Dec 19:18:08 19:20:50 16° 62° (ENE) 19:23:30 437.345
ISS 06 Dec 19:24:06 19:26:57 25° 355° (N) 19:29:48 145.825
HO-68 06 Dec 19:24:25 19:31:36 83° 253° (WSW) 19:38:50 435.675
CUSAT 1 06 Dec 19:24:49 19:26:53 14° 72° (ENE) 19:29:13 437.405
FUNcube-1 06 Dec 19:25:17 19:28:10 17° 63° (ENE) 19:31:02 145.935
CUBEBUG 2 06 Dec 19:31:05 19:35:39 48° 72° (ENE) 19:40:11 437.445
CANX-2 06 Dec 19:33:24 19:37:34 62° 259° (W) 19:41:45 2200.000
AAUSAT CUBESAT 2 06 Dec 19:36:17 19:40:10 43° 71° (ENE) 19:44:05 437.432
DOVE 4 06 Dec 19:43:11 19:45:17 13° 274° (W) 19:47:27 437.250
Cosmos 2491 06 Dec 19:45:09 19:52:54 38° 275° (W) 20:00:38 435.465 / 435.565
PCSat 06 Dec 19:47:17 19:52:17 35° 48° (NE) 19:57:15 145.827
Oscar 11 06 Dec 19:54:09 19:57:52 29° 68° (ENE) 20:01:36 145.826/435.025
SEEDS 06 Dec 19:57:40 20:01:46 56° 260° (W) 20:05:53 437.485
NOAA 18 06 Dec 20:04:49 20:06:43 12° 273° (W) 20:08:36 137.9125
COMPASS 1 06 Dec 20:06:54 20:11:00 66° 259° (W) 20:15:08 437.405
UWE-3 06 Dec 20:12:13 20:16:53 80° 76° (ENE) 20:21:30 435.000/436.395/437.385
YUBILEINY 06 Dec 20:13:21 20:21:57 63° 283° (WNW) 20:30:40 435.215
STRAND 1 06 Dec 20:16:42 20:21:48 72° 287° (WNW) 20:26:51 437.568
AIST 1 06 Dec 20:19:32 20:23:50 78° 279° (W) 20:28:13
DELFI C3 06 Dec 20:30:19 20:33:29 24° 67° (ENE) 20:36:40 145.870
PRISM 06 Dec 20:39:54 20:42:18 15° 91° (E) 20:44:40 437.425
HUMSAT D 06 Dec 20:40:18 20:43:13 19° 64° (ENE) 20:46:07 437.325/437.525
ZACube-1 06 Dec 20:52:07 20:56:38 64° 259° (W) 21:01:06 437.345
SO-50 06 Dec 20:54:40 20:59:26 73° 308° (NW) 21:04:08 436.795
CUTE 1.7 + AOD 2 06 Dec 20:54:40 20:55:44 11° 272° (W) 20:56:47 437.475
Cosmos 2504 06 Dec 20:56:51 21:05:13 66° 283° (WNW) 21:14:03 435.465 / 435.565
FUNcube-1 06 Dec 20:59:31 21:03:59 58° 260° (W) 21:08:24 145.935
ISS 06 Dec 21:01:00 21:04:04 34° 15° (NNE) 21:07:08 145.825
CUSAT 1 06 Dec 21:05:16 21:08:45 44° 262° (W) 21:13:14 437.405
CUBEBUG 2 06 Dec 21:08:56 21:12:29 21° 268° (W) 21:16:01 437.445
AAUSAT CUBESAT 2 06 Dec 21:13:07 21:15:51 17° 268° (W) 21:18:35 437.432
HO-68 06 Dec 21:16:20 21:20:22 16° 273° (W) 21:24:27 435.675
UNISAT 6 06 Dec 21:25:23 21:26:25 11° 87° (E) 21:27:27 437.425
Oscar 11 06 Dec 21:30:13 21:33:58 28° 265° (W) 21:37:43 145.826/435.025
PCSat 06 Dec 21:30:40 21:35:45 41° 247° (WSW) 21:40:46 145.827
UWE-3 06 Dec 21:52:14 21:53:52 12° 272° (W) 21:55:30 435.000/436.395/437.385
TIGRISAT 06 Dec 21:53:16 21:56:33 20° 92° (E) 21:59:47 435.000
ANTELSAT 06 Dec 21:54:48 21:58:15 22° 93° (E) 22:01:38 437.575/2403.000
DANDE 06 Dec 21:58:23 22:01:01 36° 262° (W) 22:04:08 436.750
STRAND 1 06 Dec 21:58:40 22:00:04 11° 306° (NW) 22:01:28 437.568
ESTCUBE 1 06 Dec 22:03:58 22:07:30 23° 65° (ENE) 22:11:02 437.505/2401.250
DELFI C3 06 Dec 22:04:46 22:08:11 28° 264° (W) 22:11:38 145.870
AISAT 06 Dec 22:09:22 22:11:18 13° 59° (ENE) 22:13:16 437.250
PRISM 06 Dec 22:13:50 22:17:54 52° 288° (WNW) 22:21:57 437.425
HUMSAT D 06 Dec 22:14:29 22:18:31 44° 261° (W) 22:22:32 437.325/437.525
